Regional Weather Roundup
Issued by NWS

Home | Current Version | Previous Version | Graphics & Text | Print | Product List | Glossary On
Versions: 1 2 3 4 5 6 7 8 9 10 11 12 13 14 15 16 17 18 19 20 21 22 23 24 25 26 27 28 29 30 31 32 33 34 35 36 37 38 39 40 41 42 43 44 45 46 47 48 49 50
029
ASUS44 KJAN 251403
RWRMS

MISSISSIPPI HOURLY WEATHER ROUNDUP
NATIONAL WEATHER SERVICE JACKSON MS
800 AM CST TUE NOV 25 2014

NOTE: "FAIR: INDICATES FEW OR NO CLOUDS BELOW 12,000 FEET WITH NO
SIGNIFICANT WEATHER AND/OR OBSTRUCTIONS TO VISIBILITY.

MSZ001>002-007>008-010>013-018>021-025>028-034>036-251500-
NORTHWEST MISSISSIPPI

CITY           SKY/WX    TMP DP  RH WIND       PRES   REMARKS
CLARKSDALE     FAIR      37  32  81 CALM      30.25R
CLEVELAND      FAIR      39  35  86 CALM      30.25R
GREENWOOD      MOSUNNY   34  31  88 CALM      30.24R
GREENVILLE     CLOUDY    40  33  76 N3        30.24R
GRENADA        FAIR      32  32 100 CALM      30.24R
OLIVE BRANCH   PTSUNNY   37  32  81 NW5       30.21R WCI  34
OXFORD         FAIR      32  30  93 CALM      30.24R
TUNICA         SUNNY     37  30  75 NW3       30.24R
$$

MSZ003>006-009-014>017-022>024-029>033-037>039-251500-
NORTHEAST MISSISSIPPI

CITY           SKY/WX    TMP DP  RH WIND       PRES   REMARKS
COLUMBUS AFB   PTSUNNY   38  37  96 NW3       30.20R
CORINTH        FAIR      34  32  93 CALM      30.19R
GOLDN TRIANGLE SUNNY     39  34  81 NW6       30.18R WCI  35
STARKVILLE       N/A     37  34  87 NW5       30.20R WCI  34
TUPELO         SUNNY     40  29  64 N7        30.20R
$$

MSZ040-058-251500-
CENTRAL MISSISSIPPI

CITY           SKY/WX    TMP DP  RH WIND       PRES   REMARKS
JACKSON INTL   PTSUNNY   45  36  70 N8        30.21R
JACKSON HAWKNS PTSUNNY   44  35  70 VRB3      30.22R
MERIDIAN KEY   LGT RAIN  46  36  68 N12       30.18R
MERIDIAN NAS   MOSUNNY   44  37  76 NW8       30.19R
RAYMOND        FAIR      37  32  81 NW3       30.22R
VICKSBURG      CLOUDY    37  35  92 CALM      30.25R
$$

MSZ059>079-251500-
SOUTH MISSISSIPPI

CITY           SKY/WX    TMP DP  RH WIND       PRES   REMARKS
BROOKHAVEN     FAIR      46  36  66 NW8       30.21R
COLUMBIA       FAIR      43  37  81 MISG        N/A
HATTIESBURG    MOSUNNY   48  39  71 N6        30.18R
MCCOMB         SUNNY     50  30  46 N9        30.19R
NATCHEZ        PTSUNNY   41  36  81 N5        30.22S
PINE BELT      PTSUNNY   48  34  57 N8        30.18R
$$

MSZ080>082-251500-
COASTAL MISSISSIPPI

CITY           SKY/WX    TMP DP  RH WIND       PRES   REMARKS
BAY ST LOUIS   SUNNY     48  36  61 N7        30.16R
BILOXI         PTSUNNY   53  38  56 N9        30.13S
PASCAGOULA     PTSUNNY   53  37  54 N10       30.13R
GULFPORT       PTSUNNY   52  36  54 N8        30.14R
$$



USA.gov is the U.S. government's official web portal to all federal, state and local government web resources and services.